KN4TIM Weather Reports


time (UTC)temp
C
wind
direction
speed
KPH
gust
KPH
rain 1hr
cm
rain 24hr
cm
rain mn
cm
humidity
%
barometer
mb
20260506113005 16 155 1.6 6.4 0.00 0.00 0.00 83 1015.5
20260506112502 16 203 0.0 4.8 0.00 0.00 0.00 83 1015.4
20260506112002 16 252 1.6 4.8 0.00 0.00 0.00 84 1015.4
20260506111503 16 186 1.6 4.8 0.00 0.00 0.00 84 1015.3
20260506104004 15 182 0.0 6.4 0.00 0.00 0.00 85 1015.3
20260506103506 15 167 1.6 4.8 0.00 0.00 0.00 85 1015.2
20260506103017 15 250 1.6 4.8 0.00 0.00 0.00 85 1015.1
20260506102503 15 245 1.6 4.8 0.00 0.00 0.00 85 1015.1
20260506102003 15 259 0.0 4.8 0.00 0.00 0.00 85 1015.1
20260506101504 15 197 0.0 3.2 0.00 0.00 0.00 85 1015.1
20260506094004 15 135 0.0 6.4 0.00 0.00 0.00 84 1015.3
20260506093507 15 124 0.0 3.2 0.00 0.00 0.00 84 1015.4
20260506093014 15 242 0.0 3.2 0.00 0.00 0.00 84 1015.5
20260506092508 15 242 0.0 3.2 0.00 0.00 0.00 84 1015.3
20260506092010 15 255 0.0 3.2 0.00 0.00 0.00 83 1015.2
20260506091522 15 199 0.0 1.6 0.00 0.00 0.00 83 1015.4
20260506084003 16 175 0.0 3.2 0.00 0.00 0.00 81 1015.8
20260506083503 16 217 0.0 4.8 0.00 0.00 0.00 81 1015.7
20260506083008 16 203 0.0 4.8 0.00 0.00 0.00 81 1015.8
20260506082506 16 207 0.0 4.8 0.00 0.00 0.00 81 1015.8
20260506082007 16 214 1.6 4.8 0.00 0.00 0.00 81 1015.8
20260506073503 16 215 0.0 6.4 0.00 0.00 0.00 80 1015.8
20260506073008 16 235 1.6 4.8 0.00 0.00 0.00 80 1015.8
20260506061006 16 170 0.0 3.2 0.00 0.00 0.00 77 1015.9
20260506060506 16 206 0.0 4.8 0.00 0.00 0.00 76 1016.1
20260506051002 17 263 1.6 4.8 0.00 0.00 0.00 74 1016.0
20260506050508 17 221 0.0 6.4 0.00 0.00 0.00 74 1016.0
20260506045005 17 250 1.6 9.7 0.00 0.00 0.00 73 1016.1
20260506044518 17 122 1.6 4.8 0.00 0.00 0.00 73 1016.1
20260506041531 18 240 0.0 8.0 0.00 0.00 0.00 72 1016.3
20260506041009 18 214 1.6 4.8 0.00 0.00 0.00 71 1016.4
20260506040512 18 222 1.6 4.8 0.00 0.00 0.00 71 1016.4
20260506040025 18 169 1.6 4.8 0.00 0.00 0.00 71 1016.4
20260506035504 18 188 0.0 6.4 0.00 0.00 0.00 71 1016.4
20260506035007 18 142 1.6 6.4 0.00 0.00 0.00 71 1016.5
20260506032513 18 130 3.2 14.5 0.00 0.00 0.00 70 1016.1
20260506032010 18 275 0.0 8.0 0.00 0.00 0.00 70 1016.1
20260506031526 18 268 1.6 8.0 0.00 0.00 0.00 69 1016.0
20260506031009 18 228 1.6 6.4 0.00 0.00 0.00 69 1016.1
20260506030513 18 134 1.6 6.4 0.00 0.00 0.00 68 1016.1
20260506030031 18 113 1.6 6.4 0.00 0.00 0.00 68 1016.1
20260506023505 19 115 1.6 3.2 0.00 0.00 0.00 65 1016.3
20260506023015 19 167 0.0 3.2 0.00 0.00 0.00 64 1016.4
20260506022506 19 168 0.0 3.2 0.00 0.00 0.00 63 1016.5
20260506022007 20 128 0.0 3.2 0.00 0.00 0.00 63 1016.4
20260506021516 20 211 0.0 3.2 0.00 0.00 0.00 62 1016.4
20260506021010 20 259 1.6 3.2 0.00 0.00 0.00 62 1016.4
20260506013022 21 62 0.0 3.2 0.00 0.00 0.00 61 1015.9
20260506012506 21 60 0.0 6.4 0.00 0.00 0.00 60 1015.8
20260506012008 21 105 0.0 6.4 0.00 0.00 0.00 60 1015.8
20260506011517 21 123 0.0 6.4 0.00 0.00 0.00 59 1015.7
20260506011008 21 210 0.0 4.8 0.00 0.00 0.00 59 1015.5
20260506010505 21 129 1.6 6.4 0.00 0.00 0.00 59 1015.2
20260506010004 21 120 1.6 6.4 0.00 0.00 0.00 58 1015.1
20260506005503 21 156 1.6 4.8 0.00 0.00 0.00 58 1015.1
20260506005005 21 183 0.0 4.8 0.00 0.00 0.00 57 1015.0
20260506004506 22 213 1.6 4.8 0.00 0.00 0.00 57 1014.9
20260506004002 22 134 0.0 4.8 0.00 0.00 0.00 56 1014.9
20260506003504 22 123 1.6 4.8 0.00 0.00 0.00 56 1014.8
20260506003008 22 152 0.0 4.8 0.00 0.00 0.00 55 1014.7
20260506002503 22 107 0.0 4.8 0.00 0.00 0.00 54 1014.8
20260506002007 22 127 0.0 1.6 0.00 0.00 0.00 52 1014.7
20260506001509 23 162 0.0 3.2 0.00 0.00 0.00 51 1014.8
20260506001004 23 78 0.0 4.8 0.00 0.00 0.00 50 1014.7
20260506000507 23 200 0.0 4.8 0.00 0.00 0.00 48 1014.6
20260506000019 23 214 0.0 4.8 0.00 0.00 0.00 48 1014.6
20260505235508 24 129 1.6 4.8 0.00 0.00 0.00 47 1014.5
20260505235003 24 134 1.6 8.0 0.00 0.00 0.00 46 1014.5
20260505234512 24 200 1.6 8.0 0.00 0.00 0.00 44 1014.6
20260505234003 25 121 1.6 8.0 0.00 0.00 0.00 41 1014.6
20260505233506 25 190 1.6 8.0 0.00 0.00 0.00 40 1014.6
20260505233004 25 177 1.6 8.0 0.00 0.00 0.00 40 1014.7
20260505232503 25 122 1.6 3.2 0.00 0.00 0.00 39 1014.7
20260505232004 25 129 1.6 3.2 0.00 0.00 0.00 39 1014.6
20260505231506 25 196 1.6 3.2 0.00 0.00 0.00 39 1014.7
20260505231004 26 134 1.6 8.0 0.00 0.00 0.00 38 1014.7
20260505230504 26 265 1.6 8.0 0.00 0.00 0.00 38 1014.7
20260505225506 26 234 1.6 8.0 0.00 0.00 0.00 36 1014.9
20260505225007 26 134 1.6 9.7 0.00 0.00 0.00 35 1014.7
20260505224524 27 13 3.2 9.7 0.00 0.00 0.00 34 1014.7
20260505224002 27 135 3.2 6.4 0.00 0.00 0.00 35 1014.6
20260505223505 27 137 3.2 6.4 0.00 0.00 0.00 35 1014.5
20260505223007 27 205 0.0 8.0 0.00 0.00 0.00 35 1014.5
20260505222504 27 169 1.6 8.0 0.00 0.00 0.00 35 1014.5
20260505222005 27 151 1.6 8.0 0.00 0.00 0.00 35 1014.6
20260505221504 27 120 1.6 9.7 0.00 0.00 0.00 35 1014.6
20260505221004 27 101 3.2 14.5 0.00 0.00 0.00 35 1014.8
20260505220503 27 172 4.8 14.5 0.00 0.00 0.00 34 1014.8
20260505220023 27 267 1.6 8.0 0.00 0.00 0.00 35 1014.8
20260505215505 27 215 1.6 9.7 0.00 0.00 0.00 36 1014.7
20260505215009 27 141 1.6 9.7 0.00 0.00 0.00 35 1014.7
20260505214524 27 129 3.2 8.0 0.00 0.00 0.00 35 1014.9
20260505214007 27 228 1.6 6.4 0.00 0.00 0.00 35 1014.7
20260505213507 27 107 1.6 12.9 0.00 0.00 0.00 35 1014.9
20260505213026 27 212 4.8 12.9 0.00 0.00 0.00 34 1015.0
20260505212503 27 167 4.8 11.3 0.00 0.00 0.00 33 1015.0
20260505212002 28 134 3.2 8.0 0.00 0.00 0.00 33 1015.0
20260505211504 28 236 4.8 8.0 0.00 0.00 0.00 33 1015.0
20260505211004 28 103 3.2 12.9 0.00 0.00 0.00 33 1015.0
20260505210503 28 189 3.2 12.9 0.00 0.00 0.00 32 1015.0
20260505210007 28 130 4.8 11.3 0.00 0.00 0.00 31 1015.2
20260505205507 28 125 1.6 8.0 0.00 0.00 0.00 33 1015.1
20260505205009 28 212 3.2 17.7 0.00 0.00 0.00 32 1015.2
20260505204515 28 112 4.8 17.7 0.00 0.00 0.00 32 1015.4
20260505204005 28 129 4.8 11.3 0.00 0.00 0.00 32 1015.3
20260505203505 28 86 3.2 9.7 0.00 0.00 0.00 34 1015.3
20260505203016 28 124 1.6 9.7 0.00 0.00 0.00 33 1015.3
20260505202507 28 141 3.2 9.7 0.00 0.00 0.00 32 1015.3
20260505202009 28 37 3.2 8.0 0.00 0.00 0.00 33 1015.3
20260505201523 28 122 1.6 11.3 0.00 0.00 0.00 34 1015.4
20260505201009 27 128 6.4 11.3 0.00 0.00 0.00 33 1015.5
20260505200506 28 126 3.2 6.4 0.00 0.00 0.00 33 1015.5
20260505200007 28 182 1.6 8.0 0.00 0.00 0.00 35 1015.6
20260505195504 28 84 3.2 17.7 0.00 0.00 0.00 35 1015.6
20260505195003 28 109 4.8 17.7 0.00 0.00 0.00 33 1015.7
20260505194507 28 61 4.8 11.3 0.00 0.00 0.00 32 1015.8
20260505194005 28 102 1.6 11.3 0.00 0.00 0.00 33 1015.8
20260505193503 29 135 4.8 8.0 0.00 0.00 0.00 32 1015.9
20260505193033 29 118 1.6 8.0 0.00 0.00 0.00 34 1015.8
20260505192506 29 279 3.2 16.1 0.00 0.00 0.00 35 1016.0
20260505192005 28 162 3.2 16.1 0.00 0.00 0.00 34 1016.0
20260505191516 28 251 3.2 11.3 0.00 0.00 0.00 35 1016.2
20260505191006 28 239 3.2 11.3 0.00 0.00 0.00 36 1016.4
20260505190509 28 129 3.2 11.3 0.00 0.00 0.00 36 1016.4
20260505190030 28 158 4.8 12.9 0.00 0.00 0.00 34 1016.5
20260505185500 29 130 3.2 12.9 0.00 0.00 0.00 33 1016.6
20260505185000 28 120 3.2 11.3 0.00 0.00 0.00 37 1016.7
20260505184502 28 260 1.6 11.3 0.00 0.00 0.00 36 1016.7
20260505184000 28 130 1.6 9.7 0.00 0.00 0.00 37 1016.8
20260505183500 28 157 3.2 9.7 0.00 0.00 0.00 37 1016.7
20260505183003 28 127 3.2 8.0 0.00 0.00 0.00 37 1016.8
20260505182500 28 113 3.2 8.0 0.00 0.00 0.00 34 1016.8
20260505181959 28 169 3.2 8.0 0.00 0.00 0.00 37 1016.9
20260505181501 28 100 3.2 8.0 0.00 0.00 0.00 37 1016.8
20260505181000 28 118 3.2 8.0 0.00 0.00 0.00 36 1016.7
20260505180501 27 184 1.6 8.0 0.00 0.00 0.00 38 1016.6
20260505180000 27 122 3.2 9.7 0.00 0.00 0.00 37 1016.6
20260505175500 27 123 3.2 12.9 0.00 0.00 0.00 39 1016.6
20260505175001 27 103 1.6 12.9 0.00 0.00 0.00 39 1016.7
20260505174501 27 241 4.8 12.9 0.00 0.00 0.00 39 1016.8
20260505174001 27 205 1.6 6.4 0.00 0.00 0.00 39 1016.7
20260505173459 27 101 3.2 6.4 0.00 0.00 0.00 38 1016.9
20260505173000 27 243 3.2 8.0 0.00 0.00 0.00 38 1017.2
20260505172500 27 114 3.2 8.0 0.00 0.00 0.00 39 1017.2
20260505172000 26 113 1.6 9.7 0.00 0.00 0.00 41 1017.2
20260505171501 26 116 1.6 9.7 0.00 0.00 0.00 40 1017.4
20260505171000 27 131 3.2 9.7 0.00 0.00 0.00 38 1017.4
20260505170500 27 127 3.2 9.7 0.00 0.00 0.00 37 1017.5
20260505170002 27 98 4.8 9.7 0.00 0.00 0.00 35 1017.7
20260505165501 27 127 1.6 6.4 0.00 0.00 0.00 37 1017.7
20260505165001 27 268 1.6 6.4 0.00 0.00 0.00 37 1017.7
20260505164501 27 132 1.6 6.4 0.00 0.00 0.00 42 1017.8
20260505164000 27 72 1.6 6.4 0.00 0.00 0.00 43 1017.8
20260505163501 27 108 1.6 4.8 0.00 0.00 0.00 42 1017.8
20260505163000 26 293 1.6 4.8 0.00 0.00 0.00 44 1018.0
20260505162459 26 281 1.6 6.4 0.00 0.00 0.00 44 1018.1
20260505162001 26 291 1.6 8.0 0.00 0.00 0.00 44 1018.2
20260505161501 26 140 1.6 8.0 0.00 0.00 0.00 46 1018.2
20260505161001 26 258 3.2 8.0 0.00 0.00 0.00 45 1018.2
20260505160503 26 220 3.2 8.0 0.00 0.00 0.00 45 1018.4
20260505153002 26 91 1.6 6.4 0.00 0.00 0.00 49 1018.5
20260505152459 25 274 0.0 6.4 0.00 0.00 0.00 50 1018.4
20260505152002 25 190 3.2 6.4 0.00 0.00 0.00 50 1018.4
20260505151501 25 232 1.6 8.0 0.00 0.00 0.00 52 1018.4
20260505151001 25 104 1.6 8.0 0.00 0.00 0.00 53 1018.4
20260505150503 24 78 1.6 6.4 0.00 0.00 0.00 54 1018.4
20260505140504 20 75 1.6 6.4 0.00 0.00 0.00 63 1018.3
20260505125001 15 217 0.0 3.2 0.00 0.00 0.00 79 1018.1
20260505124500 15 115 0.0 4.8 0.00 0.00 0.00 80 1018.1
20260505124003 15 101 0.0 4.8 0.00 0.00 0.00 80 1018.0
20260505123501 15 98 0.0 3.2 0.00 0.00 0.00 82 1018.0
20260505123001 14 205 1.6 3.2 0.00 0.00 0.00 83 1018.0
20260505122500 14 189 0.0 1.6 0.00 0.00 0.00 84 1018.0
20260505122001 13 231 0.0 1.6 0.00 0.00 0.00 85 1018.1
20260505121501 13 231 0.0 1.6 0.00 0.00 0.00 85 1018.1
20260505121001 13 231 0.0 1.6 0.00 0.00 0.00 87 1018.0
20260505120504 12 242 0.0 1.6 0.00 0.00 0.00 87 1017.9
20260505120002 12 242 0.0 1.6 0.00 0.00 0.00 89 1017.9
20260505115502 12 242 0.0 1.6 0.00 0.00 0.00 90 1018.0
20260505115003 11 303 0.0 0.0 0.00 0.00 0.00 91 1017.9
20260505114502 11 303 0.0 0.0 0.00 0.00 0.00 92 1017.9
20260505114002 11 303 0.0 0.0 0.00 0.00 0.00 92 1017.9
20260505113500 10 303 0.0 0.0 0.00 0.00 0.00 91 1017.8